Hourly Data Report for October 10, 2016

All times are specified in Local Standard Time (LST). Add 1 hour to adjust for Daylight Saving Time where and when it is observed.

POND INLET A
NUNAVUT

72°41'22.000" N
77°58'08.000" W
61.60 m
2403206
71095
YIO

Related Data

No related data is available for this station

Download Data

Hourly Data (October 2016)
Hourly Data Report for October 10, 2016
Temp Definition
°C
Dew Point Temp Definition
°C
Rel Hum Definition
%
Wind Dir Definition
10's deg

Wind Spd Definition
km/h
Visibility Definition
km
Stn Press Definition
kPa
Hmdx Definition


Wind Chill Definition


Weather Definition


TIME
00:00 Legend Double Dagger -6.2 -7.3 92 27 21 16.1 100.02   -13 Snow
01:00 Legend Double Dagger -6.3 -7.7 90 26 22 16.1 100.02   -14 Snow
02:00 Legend Double Dagger -6.5 -7.9 90 27 17 16.1 100.02   -13 Snow
03:00 Legend Double Dagger -6.7 -8.1 90 26 21 16.1 100.02   -14 LegendNANA
04:00 Legend Double Dagger -6.7 -8.4 88 26 17 16.1 100.02   -13 LegendNANA
05:00 Legend Double Dagger -6.6 -8.2 88 28 13 16.1 100.01   -12 LegendNANA
06:00 Legend Double Dagger -6.7 -8.7 86 28 13 16.1 100.01   -12 Snow
07:00 Legend Double Dagger -7.0 -9.3 84 29 13 16.1 100.01   -13 LegendNANA
08:00 Legend Double Dagger -6.8 -8.8 86 27 13 16.1 99.99   -12 LegendNANA
09:00 Legend Double Dagger -7.6 -9.1 89 16 11 9.7 99.98   -13 Snow
10:00 Legend Double Dagger -7.8 -9.5 88 16 13 16.1 99.96   -14 LegendNANA
11:00 Legend Double Dagger -7.7 -9.5 87 15 13 12.9 99.95   -13 LegendNANA
12:00 Legend Double Dagger -8.5 -10.7 84 15 15 16.1 99.95   -15 LegendNANA
13:00 Legend Double Dagger -8.6 -10.7 85 15 15 16.1 99.94   -15 LegendNANA
14:00 Legend Double Dagger -8.5 -10.4 86 15 15 14.5 99.95   -15 LegendNANA
15:00 Legend Double Dagger -8.1 -9.8 88 14 13 6.4 99.94   -14 Snow
16:00 Legend Double Dagger -8.6 -10.5 86 15 15 16.1 99.93   -15 LegendNANA
17:00 Legend Double Dagger -9.6 -11.5 86 15 15 16.1 99.91   -16 LegendNANA
18:00 Legend Double Dagger -10.3 -12.4 85 14 17 16.1 99.94   -18 LegendNANA
19:00 Legend Double Dagger -9.6 -11.8 84 14 17 16.1 99.94   -17 LegendNANA
20:00 Legend Double Dagger -9.8 -11.8 85 14 15 16.1 99.93   -16 LegendNANA
21:00 Legend Double Dagger -10.0 -11.8 87 14 17 16.1 99.92   -17 LegendNANA
22:00 Legend Double Dagger -10.2 -12.0 87 14 18 16.1 99.93   -18 LegendNANA
23:00 Legend Double Dagger -9.0 -11.4 83 14 15 16.1 99.94   -16 LegendNANA

Notes on Data Quality.

Legend

  • E = Estimated
  • M = Missing
  • NA = Not Available
  • ‡ = Partner data that is not subject to review by the National Climate Archives
Date modified: